[[{"header":{"parameterUnit":"m.s-1","parameterCategory":1,"la1":30.2991,"la2":30.254,"lo1":-89.0895,"lo2":-89.0444,"dy":0.0017,"dx":0.0017,"nx":28,"ny":28,"refTime":"2025-03-30T03:00:00:Z","depth":0,"parameterNumber":2,"parameterNumberName":"U-component_of_WINDS"},"data":[0,0,0,0,0,0,0,0,0,0,0,0,0,0,0,0,0,0,0,0,0,0,0,0,0,0,0,0,0,0,0,0,0,0,0,0,0,0,0,0,0,0,0,0,0,0,0,0,0,0,0,0,0,0,0,0,0,0,-3.7433,-3.7434,0,-3.7531,-3.7532,-3.7534,-3.7552,-3.7551,-3.755,-3.755,-3.7648,-3.7651,-3.7654,0,0,0,0,0,0,0,0,0,0,0,0,0,-3.7257,-3.726,-3.7432,-3.7434,-3.7435,-3.7531,-3.7533,-3.7534,-3.7552,-3.7551,-3.755,-3.7549,-3.7647,-3.7651,-3.7655,0,0,0,0,0,0,0,0,0,0,0,0,0,-3.7342,-3.7261,-3.7432,-3.7456,-3.7459,-3.7531,-3.7533,-3.7534,-3.7552,-3.7551,-3.755,-3.7549,-3.7645,-3.765,-3.7655,-3.771,0,0,-3.767,-3.7673,0,0,0,0,0,0,0,0,-3.7337,-3.7348,-3.7451,-3.7454,-3.7458,-3.7528,-3.7507,-3.7593,-3.7552,-3.7517,-3.755,-3.7548,-3.7609,-3.7617,-3.7638,-3.7714,-3.7719,-3.7671,-3.7674,-3.7676,-3.7678,0,0,0,0,0,0,0,-3.7331,-3.7344,-3.7472,-3.7452,-3.7457,-3.746,-3.7471,-3.7523,-3.7568,-3.752,-3.7521,-3.7533,-3.761,-3.7633,-3.764,-3.772,-3.7671,-3.7675,-3.7678,-3.768,-3.7846,-3.7847,0,0,0,0,0,0,-3.7322,-3.7339,-3.7468,-3.7474,-3.7393,-3.7465,-3.7477,-3.7507,-3.7568,-3.7576,-3.7534,-3.7533,-3.7625,-3.7634,-3.7644,-3.7711,-3.7676,-3.7681,-3.7684,-3.7845,-3.7846,-3.7848,0,0,0,0,0,0,-3.7318,-3.7333,-3.7464,-3.7407,-3.7424,-3.7469,-3.7502,-3.7509,-3.7532,-3.7578,-3.7586,-3.7549,-3.7624,-3.7637,-3.7693,-3.7714,-3.7683,-3.7688,-3.7843,-3.7845,-3.7847,-3.7846,0,0,0,0,0,0,-3.7313,-3.7331,-3.7353,-3.7408,-3.7427,-3.7513,-3.7504,-3.7512,-3.7541,-3.7541,-3.7594,-3.7602,-3.7624,-3.7686,-3.7698,-3.7721,-3.7692,-3.7841,-3.7844,-3.7846,-3.7844,-3.7847,-3.785,0,0,0,0,0,-3.7306,-3.7348,-3.7354,-3.737,-3.7456,-3.7514,-3.7525,-3.7551,-3.7542,-3.7564,-3.7594,-3.76,-3.7711,-3.7691,-3.7706,-3.773,-3.784,-3.7843,-3.7846,-3.7843,-3.7847,-3.785,0,0,0,0,0,0,-3.7294,-3.7356,-3.7363,-3.7424,-3.7464,-3.7517,-3.7545,-3.7555,-3.7597,-3.7595,-3.7625,-3.7637,-3.7691,-3.7717,-3.7694,-3.7786,-3.7775,-3.7781,-3.7767,-3.7771,-3.7774,-3.7766,-3.7696,0,0,0,0,0,-3.7299,-3.7342,-3.7394,-3.7443,-3.7462,-3.7501,-3.7527,-3.7544,-3.7585,-3.7602,-3.7636,-3.7675,-3.7719,-3.7747,-3.779,-3.7849,-3.786,-3.7872,-3.7876,-3.7878,-3.7882,-3.7914,-3.792,-3.7858,-3.7858,-3.7858,0,0,-3.7308,-3.7347,-3.7373,-3.7441,-3.7474,-3.7517,-3.7514,-3.756,-3.7592,-3.7609,-3.7664,-3.7691,-3.7737,-3.7794,-3.7822,-3.7817,-3.7902,-3.7882,-3.7884,-3.7887,-3.7918,-3.7924,-3.7929,-3.786,-3.786,-3.7859,0,0,-3.7347,-3.7382,-3.7426,-3.7459,-3.7509,-3.7535,-3.7545,-3.7597,-3.7616,-3.7672,-3.7685,-3.7724,-3.7798,-3.783,-3.7856,-3.7909,-3.7915,-3.7922,-3.7938,-3.7968,-3.7973,-3.7978,-3.7995,-3.8001,-3.7926,-3.7926,-3.7926,0,-3.7352,-3.7418,-3.7447,-3.7493,-3.7522,-3.754,-3.7584,-3.7615,-3.7676,-3.7695,-3.769,-3.7784,-3.7816,-3.7881,-3.7894,-3.7915,-3.7927,-3.7915,-3.7971,-3.7975,-3.798,-3.7996,-3.8003,-3.7927,-3.7927,-3.7927,-3.7927,0,-3.7421,-3.7467,-3.7497,-3.7556,-3.7589,-3.7633,-3.7668,-3.7698,-3.7712,-3.7737,-3.7794,-3.7834,-3.7885,-3.7902,-3.7916,-3.7969,-3.7965,-3.7965,-3.7954,-3.7985,-3.8001,-3.8008,-3.7927,-3.7927,-3.7927,-3.7927,0,0,-3.7453,-3.7529,-3.7539,-3.7566,-3.7623,-3.7658,-3.7704,-3.7754,-3.7778,-3.782,-3.7858,-3.7921,-3.7922,-3.7951,-3.7969,-3.7997,-3.8033,-3.7993,-3.7995,-3.7998,-3.8093,-3.8091,-3.8098,-3.8039,-3.8041,-3.8042,-3.8088,0,-3.7497,-3.7579,-3.7607,-3.7674,-3.7716,-3.7735,-3.7774,-3.7813,-3.7838,-3.7877,-3.7905,-3.7949,-3.7947,-3.7965,-3.7993,-3.8023,-3.8052,-3.802,-3.8073,-3.8074,-3.8058,-3.8106,-3.8104,-3.8146,-3.8095,-3.8096,-3.8097,0,-3.7559,-3.7603,-3.7675,-3.7726,-3.7745,-3.778,-3.7828,-3.7865,-3.7909,-3.7926,-3.796,-3.7976,-3.8023,-3.8011,-3.8075,-3.8053,-3.8076,-3.8094,-3.8097,-3.8101,-3.8086,-3.8109,-3.816,-3.8165,-3.8107,-3.8106,-3.8105,0,-3.7573,-3.765,-3.7702,-3.7725,-3.7787,-3.7811,-3.7838,-3.7881,-3.7909,-3.7952,-3.797,-3.8018,-3.8043,-3.8079,-3.8107,-3.8096,-3.8168,-3.8159,-3.8182,-3.8181,-3.8194,-3.8193,-3.8247,-3.8213,-3.8213,-3.8213,-3.8213,0,-3.7618,-3.7661,-3.7709,-3.7741,-3.779,-3.7821,-3.7868,-3.7895,-3.7934,-3.7971,-3.7991,-3.8025,-3.8061,-3.81,-3.8122,-3.8171,-3.8183,-3.8197,-3.8202,-3.8194,-3.8192,-3.8208,-3.8205,-3.8215,-3.8214,-3.8214,-3.8213,0,-3.7641,-3.7675,-3.7733,-3.7788,-3.7802,-3.7835,-3.7881,-3.7913,-3.794,-3.7986,-3.7999,-3.8041,-3.8088,-3.812,-3.818,-3.8195,-3.8248,-3.8253,-3.8233,-3.8235,-3.8255,-3.8252,-3.832,-3.833,-3.8291,-3.8291,-3.8292,0,-3.7666,-3.77,-3.7758,-3.7784,-3.7811,-3.7854,-3.7884,-3.7916,-3.7946,-3.7999,-3.8024,-3.8072,-3.8112,-3.8186,-3.8221,-3.8267,-3.8273,-3.8294,-3.8279,-3.827,-3.8271,-3.8268,-3.827,-3.8295,-3.8295,-3.8295,-3.8295,0,-3.7707,-3.7723,-3.7765,-3.7813,-3.7848,-3.7888,-3.7927,-3.7948,-3.7987,-3.802,-3.8068,-3.8099,-3.8161,-3.8208,-3.8257,-3.8284,-3.8296,-3.83,-3.8307,-3.8298,-3.8284,-3.8291,-3.8236,-3.8298,-3.8297,-3.8297,-3.8297,-3.8297,-3.7731,-3.7761,-3.7807,-3.7853,-3.7886,-3.7923,-3.7955,-3.7986,-3.8028,-3.8081,-3.8097,-3.8147,-3.8191,-3.8258,-3.8286,-3.8325,-3.8323,-3.8334,-3.8337,-3.8338,-3.8337,-3.828,-3.8334,-3.8334,-3.8334,-3.8334,-3.8334,0,-3.7771,-3.7802,-3.7844,-3.7899,-3.7935,-3.7945,-3.799,-3.8019,-3.8063,-3.8103,-3.8142,-3.8197,-3.8244,-3.8283,-3.8331,-3.8354,-3.8361,-3.8365,-3.8363,-3.8368,-3.8337,-3.8325,-3.8359,-3.8359,-3.8359,-3.8359,-3.8359,-3.8359,-3.7796,-3.7847,-3.7869,-3.7936,-3.7967,-3.8016,-3.804,-3.8074,-3.8106,-3.8167,-3.8206,-3.8232,-3.8271,-3.8322,-3.8364,-3.8375,-3.839,-3.8393,-3.8404,-3.8374,-3.8371,-3.8368,-3.8357,-3.8397,-3.8397,-3.8433,-3.8433,-3.8433]},{"header":{"parameterUnit":"m.s-1","parameterCategory":1,"la1":30.2991,"la2":30.254,"lo1":-89.0895,"lo2":-89.0444,"dy":0.0017,"dx":0.0017,"nx":28,"ny":28,"refTime":"2025-03-30T03:00:00:Z","depth":0,"parameterNumber":3,"parameterNumberName":"V-component_of_WINDS"},"data":[0,0,0,0,0,0,0,0,0,0,0,0,0,0,0,0,0,0,0,0,0,0,0,0,0,0,0,0,0,0,0,0,0,0,0,0,0,0,0,0,0,0,0,0,0,0,0,0,0,0,0,0,0,0,0,0,0,0,3.1221,3.1221,0,3.1235,3.1235,3.1235,3.1215,3.1214,3.1213,3.1213,3.1226,3.1226,3.1227,0,0,0,0,0,0,0,0,0,0,0,0,0,3.1179,3.118,3.1221,3.1221,3.1222,3.1235,3.1235,3.1235,3.1215,3.1214,3.1213,3.1212,3.1225,3.1226,3.1228,0,0,0,0,0,0,0,0,0,0,0,0,0,3.1195,3.118,3.1221,3.1213,3.1213,3.1234,3.1235,3.1235,3.1215,3.1214,3.1213,3.1212,3.1225,3.1226,3.1228,3.1258,0,0,3.1232,3.1233,0,0,0,0,0,0,0,0,3.1194,3.1197,3.1214,3.1214,3.1213,3.1222,3.1225,3.1243,3.1215,3.1214,3.1213,3.1211,3.1225,3.1227,3.1231,3.1259,3.1259,3.1232,3.1233,3.1234,3.1234,0,0,0,0,0,0,0,3.1193,3.1196,3.1226,3.1214,3.1214,3.1209,3.121,3.1228,3.1225,3.1214,3.1213,3.1215,3.1225,3.123,3.1231,3.1259,3.1232,3.1234,3.1235,3.1235,3.1314,3.1315,0,0,0,0,0,0,3.1193,3.1195,3.1226,3.1227,3.1201,3.1211,3.1212,3.122,3.1225,3.1225,3.1215,3.1214,3.1228,3.123,3.1232,3.1269,3.1234,3.1235,3.1236,3.1313,3.1315,3.1316,0,0,0,0,0,0,3.1192,3.1196,3.1226,3.1211,3.1214,3.1213,3.1222,3.1221,3.1226,3.1226,3.1225,3.1221,3.1227,3.123,3.1252,3.1269,3.1236,3.1237,3.1312,3.1313,3.1315,3.1343,0,0,0,0,0,0,3.1191,3.1196,3.1207,3.1211,3.1215,3.1246,3.1223,3.1222,3.1229,3.1227,3.1231,3.1231,3.1226,3.125,3.1254,3.1271,3.1239,3.131,3.1312,3.1315,3.1341,3.1346,3.135,0,0,0,0,0,3.119,3.1214,3.1208,3.1212,3.1229,3.1247,3.1249,3.1243,3.123,3.1242,3.1242,3.1231,3.1267,3.1253,3.1256,3.1274,3.1309,3.1312,3.1314,3.1339,3.1345,3.135,0,0,0,0,0,0,3.1211,3.1214,3.1208,3.1234,3.124,3.1243,3.1257,3.1249,3.1259,3.1257,3.1249,3.125,3.1275,3.1276,3.1261,3.1305,3.1286,3.1289,3.1303,3.1309,3.1313,3.1313,3.124,0,0,0,0,0,3.1219,3.1233,3.1235,3.1258,3.1261,3.1259,3.1266,3.1262,3.1268,3.127,3.1272,3.1279,3.1291,3.13,3.1311,3.1341,3.1342,3.1355,3.136,3.1363,3.1367,3.1384,3.1391,3.1325,3.1325,3.1325,0,0,3.1235,3.1239,3.1248,3.1262,3.1267,3.1282,3.1261,3.1278,3.1289,3.1273,3.1295,3.1296,3.1303,3.133,3.1341,3.1332,3.1385,3.1367,3.137,3.1371,3.1388,3.1394,3.14,3.1327,3.1326,3.1326,0,0,3.1273,3.1276,3.1297,3.1302,3.1309,3.1308,3.1313,3.1317,3.1318,3.134,3.1329,3.1342,3.1364,3.137,3.1376,3.1417,3.1408,3.1421,3.1446,3.1463,3.1468,3.1473,3.1489,3.1495,3.1425,3.1425,3.1425,0,3.1292,3.1314,3.1308,3.1326,3.1333,3.132,3.1341,3.1346,3.1357,3.1363,3.1352,3.138,3.1384,3.1412,3.1423,3.1427,3.1434,3.1421,3.1468,3.1472,3.1477,3.1492,3.1498,3.1426,3.1426,3.1426,3.1426,0,3.1339,3.1355,3.137,3.1382,3.1391,3.141,3.1407,3.1417,3.1412,3.1412,3.1435,3.1439,3.1452,3.1458,3.1453,3.1487,3.1481,3.1469,3.145,3.1485,3.15,3.1505,3.1429,3.1428,3.1428,3.1427,0,0,3.139,3.1399,3.1405,3.1411,3.1419,3.1431,3.145,3.1464,3.1473,3.1481,3.1498,3.1517,3.1507,3.1514,3.1509,3.1524,3.1559,3.151,3.1511,3.1521,3.1599,3.1609,3.1616,3.1553,3.1554,3.1555,3.1599,0,3.1429,3.1463,3.1459,3.1491,3.1507,3.1495,3.1512,3.1519,3.1519,3.1533,3.1533,3.1548,3.1532,3.1537,3.1551,3.1552,3.1575,3.1548,3.1569,3.157,3.1569,3.1623,3.1633,3.1675,3.1604,3.1605,3.1606,0,3.1479,3.149,3.1525,3.1532,3.1538,3.1554,3.1567,3.1579,3.1587,3.1587,3.1595,3.1588,3.1608,3.1588,3.1616,3.1599,3.1607,3.1609,3.161,3.1613,3.1591,3.1629,3.1688,3.1695,3.1615,3.1614,3.1613,0,3.1516,3.1539,3.1563,3.1568,3.1577,3.1588,3.1592,3.1599,3.1608,3.1619,3.1625,3.1638,3.1646,3.1656,3.1653,3.1639,3.1683,3.1662,3.1684,3.1684,3.1695,3.1694,3.1757,3.1698,3.1697,3.1697,3.1697,0,3.1561,3.1583,3.158,3.1595,3.162,3.1615,3.1639,3.1642,3.1648,3.1664,3.1654,3.1669,3.1663,3.1678,3.1675,3.17,3.1703,3.1704,3.1704,3.1706,3.1706,3.1712,3.171,3.1699,3.1699,3.1698,3.1698,0,3.1606,3.1605,3.1631,3.1637,3.1639,3.1658,3.1663,3.1678,3.1678,3.1698,3.1702,3.1702,3.1719,3.1717,3.1736,3.1734,3.1766,3.1761,3.1764,3.1763,3.1786,3.1784,3.1856,3.1866,3.1798,3.1799,3.1799,0,3.1636,3.1653,3.1661,3.1671,3.1677,3.1693,3.1702,3.1698,3.1708,3.1719,3.1733,3.1749,3.1762,3.179,3.1792,3.1807,3.1803,3.1827,3.1805,3.1808,3.1805,3.1805,3.1808,3.1832,3.1833,3.1833,3.1834,0,3.1689,3.1688,3.1703,3.1717,3.1729,3.174,3.175,3.1759,3.1755,3.1768,3.1785,3.1796,3.1815,3.1832,3.1846,3.185,3.1842,3.184,3.1847,3.185,3.1852,3.1853,3.1777,3.1839,3.1839,3.1838,3.1838,3.1838,3.1729,3.1744,3.1753,3.177,3.1777,3.1787,3.1802,3.1804,3.1819,3.1835,3.1831,3.1852,3.1861,3.1879,3.1885,3.1901,3.1892,3.19,3.1903,3.1906,3.1909,3.1848,3.1903,3.1903,3.1903,3.1903,3.1903,0,3.1784,3.1789,3.1805,3.182,3.1833,3.1824,3.1835,3.1847,3.1865,3.1874,3.1887,3.1909,3.1925,3.1929,3.1944,3.1957,3.1954,3.1961,3.1961,3.1963,3.1915,3.1909,3.1964,3.1964,3.1964,3.1964,3.1964,3.1964,3.1814,3.184,3.1841,3.187,3.1875,3.1896,3.1903,3.1913,3.192,3.1945,3.1958,3.1961,3.1968,3.1984,3.1999,3.2,3.2007,3.2017,3.2016,3.1972,3.1966,3.196,3.1955,3.2018,3.2018,3.2063,3.2063,3.2063]}]]